Location: Newark
(33.6333°S, 78.8500°W)
Time: 07:35:14
(UTC+00:00)

ISS - Visible Passes

Search period start: 19 August 2019 00:00
Search period end: 29 August 2019 00:00
Orbit: 410 x 420 km, 51.6° (Epoch: 19 August)

Date Brightness Start Highest point End Pass type
(mag) Time Alt. Az. Time Alt. Az. Time Alt. Az.
19 Aug -1.9 00:38:44 10° NW 00:40:20 26° NNW 00:40:20 26° NNW visible
19 Aug -2.9 23:50:22 10° NNW 23:53:26 33° NE 23:54:21 28° E visible
21 Aug -2.3 00:38:13 10° WNW 00:41:11 34° SW 00:41:11 34° SW visible
21 Aug -3.5 23:49:12 10° NW 23:52:33 66° SW 23:54:58 17° SE visible
23 Aug -1.1 00:38:48 10° WSW 00:40:49 15° SSW 00:41:33 14° SSW visible
23 Aug -1.6 23:49:07 10° W 23:51:52 23° SW 23:54:37 10° SSE visible
25 Aug -0.8 23:50:30 10° SW 23:51:22 11° SSW 23:52:15 10° SSW visible
